Location: Newark
(36.0797°N, 3.9744°E)
Time: 07:25:27
(UTC+00:00)

Courier 1B Rocket - Visible Passes

Search period start: 15 December 2019 00:00
Search period end: 25 December 2019 00:00
Orbit: 921 x 1202 km, 28.2° (Epoch: 14 December)

Date Brightness Start Highest point End Pass type
(mag) Time Alt. Az. Time Alt. Az. Time Alt. Az.
15 Dec 6.9 03:17:10 25° SE 03:17:10 25° SE 03:21:27 10° ESE visible
15 Dec 6.1 05:03:33 17° SW 05:08:44 42° S 05:15:05 10° ESE visible
16 Dec 6.1 04:06:31 36° S 04:07:42 38° S 04:14:07 10° ESE visible
16 Dec 6.0 05:54:03 10° WSW 06:00:52 44° S 06:07:12 10° ESE visible
17 Dec 6.9 03:09:24 26° SE 03:09:24 26° SE 03:13:03 10° ESE visible
17 Dec 5.9 04:55:47 24° WSW 04:59:51 45° S 05:06:23 10° ESE visible
18 Dec 5.9 03:58:38 44° S 03:58:47 44° S 04:05:29 10° ESE visible
18 Dec 6.1 05:45:08 10° WSW 05:51:58 42° S 05:58:21 10° ESE visible
19 Dec 7.0 03:01:26 24° ESE 03:01:26 24° ESE 03:04:27 10° ESE visible
19 Dec 5.9 04:47:48 30° SW 04:50:56 46° S 04:57:36 10° ESE visible
20 Dec 6.0 03:50:34 45° SSE 03:50:34 45° SSE 03:56:44 10° ESE visible
20 Dec 6.2 05:36:57 13° WSW 05:43:02 38° SSW 05:49:23 10° SE visible
21 Dec 7.2 02:53:20 21° ESE 02:53:20 21° ESE 02:55:44 10° ESE visible
21 Dec 5.9 04:39:42 35° SW 04:42:00 44° S 04:48:43 10° ESE visible
22 Dec 6.1 03:42:26 42° SSE 03:42:26 42° SSE 03:47:54 10° ESE visible
22 Dec 6.4 05:28:49 15° WSW 05:34:03 33° SSW 05:40:14 10° SE visible
23 Dec 7.4 02:45:11 18° ESE 02:45:11 18° ESE 02:46:56 10° ESE visible
23 Dec 6.0 04:31:33 36° SW 04:33:02 39° SSW 04:39:42 10° SE visible
23 Dec 7.0 06:20:50 10° WSW 06:25:53 20° SSW 06:30:44 10° SSE visible
24 Dec 6.4 03:34:18 35° SSE 03:34:18 35° SSE 03:38:58 10° ESE visible
24 Dec 6.6 05:20:40 16° WSW 05:25:00 26° SSW 05:30:49 10° SSE visible
